Regional Weather Roundup
Issued by NWS Upton, NY

Current Version | Previous Version | Graphics & Text | Print | Product List | Glossary Off
Versions: 1 2 3 4 5 6 7 8 9 10 11 12 13 14 15 16 17 18 19 20 21 22 23 24 25 26 27 28 29 30 31 32 33 34 35 36 37 38 39 40 41 42 43 44 45 46 47 48 49 50

000
ASUS41 KOKX 181608
RWROKX

REGIONAL WEATHER ROUNDUP
NATIONAL WEATHER SERVICE NEW YORK NY
1200 PM EDT SAT APR 18 2015

NOTE: "FAIR" INDICATES FEW OR NO CLOUDS BELOW 12,000 FEET WITH NO
SIGNIFICANT WEATHER AND/OR OBSTRUCTIONS TO VISIBILITY.

NYZ071-072-176-178-NJZ106-104-181700-
NEW YORK CITY METRO AREA


CITY           SKY/WX    TMP DP  RH WIND       PRES   REMARKS
CENTRAL PARK   SUNNY     74  40  29 CALM      29.99F
LAGUARDIA APRT MOSUNNY   70  41  34 NW7       29.97F
KENNEDY INTL   PTSUNNY   71  46  40 SW10      29.98F
NEWARK/LIBERTY PTSUNNY   76  41  28 N10       29.96F
BRNX BOT. GARD   N/A     72  41  33 SW5       29.98S
TETERBORO      SUNNY     73  42  32 NW12G17   29.96F
$$

NYZ177-179-078>081-181700-
LONG ISLAND NEW YORK

CITY           SKY/WX    TMP DP  RH WIND       PRES   REMARKS
FARMINGDALE    SUNNY     70  40  33 W12G18    29.97F
ISLIP          MOSUNNY   73  38  27 VRB6G16   29.95F
SHIRLEY        SUNNY     73  37  27 NW9G20    29.96F
WESTHAMPTON    MOSUNNY   69  45  41 S6        29.97F
MONTAUK POINT    N/A     66  46  48 W8        29.97F
$$

NYZ052-065-067-181700-
HUDSON VALLEY

CITY           SKY/WX    TMP DP  RH WIND       PRES   REMARKS
WHITE PLAINS   SUNNY     71  41  33 W6        29.96F
NEWBURGH       SUNNY     70  45  40 NW10G17   29.97F
MONTGOMERY     SUNNY     72  41  32 W10       29.94F
POUGHKEEPSIE   SUNNY     71  43  36 SW8       29.93F
ALBANY         PTSUNNY   70  41  34 VRB7      29.92F
$$

NJZ001-105-106-008-010-013-015-019>022-104-181700-
NEW JERSEY

CITY           SKY/WX    TMP DP  RH WIND       PRES   REMARKS
NEWARK/LIBERTY PTSUNNY   76  41  28 N10       29.96F
TETERBORO      SUNNY     73  42  32 NW12G17   29.96F
CALDWELL       SUNNY     73  38  27 NW10      29.97F
MORRISTOWN     SUNNY     73  39  29 W5        29.98F
SOMERVILLE     MOSUNNY   74  42  31 CALM      29.96F
SUSSEX         SUNNY     73  42  32 W6        29.97F
ANDOVER          N/A     70  40  33 MISG      29.98F
TRENTON        MOSUNNY   73  41  31 W6        29.99F
MILLVILLE      SUNNY     73  45  36 VRB3      30.00F
ATLANTIC CITY  SUNNY     73  49  42 E8        30.00F
WRIGHTSTOWN    SUNNY     73  46  37 W8G16     29.96F
TOMS RIVER     SUNNY     73  43  33 NW12G18   29.99F
BELMAR         SUNNY     73  45  35 W10       29.98F
$$

PAZ047>061-062-071-181700-
EASTERN PENNSYLVANIA

CITY           SKY/WX    TMP DP  RH WIND       PRES   REMARKS
PHILADELPHIA   PTSUNNY   72  46  39 SW7       30.00F
ALLENTOWN      SUNNY     73  44  35 W9        29.99F
SCRANTON       SUNNY     70  40  33 SW9G20    29.97F
$$

CTZ002-004>006-009-010-012-RIZ004-006-007-MAZ004-011-015-181700-
SOUTHERN NEW ENGLAND
 IN CT

CITY           SKY/WX    TMP DP  RH WIND       PRES   REMARKS
BRADLEY INTL   MOSUNNY   72  39  30 CALM      29.91F
HARTFORD       SUNNY     71  39  31 VRB6      29.93F
DANBURY        SUNNY     69  39  33 VRB7G20   29.97F
WTRBRY/OXFORD  SUNNY     68  43  40 NW5G18    29.96F
BRIDGEPORT     SUNNY     61  47  59 SW12      29.96F
MERIDEN        SUNNY     73  42  32 VRB6      29.94F
NEW HAVEN      MOSUNNY   60  46  59 S8        29.96F
CHESTER        FAIR      68  39  34 NW8G16    29.96F
GROTON         SUNNY     60  46  59 SW15      29.94F
WILLIMANTIC    SUNNY     69  42  37 W8        29.93F

 IN RI

CITY           SKY/WX    TMP DP  RH WIND       PRES   REMARKS
PROVIDENCE     MOSUNNY   72  39  30 W7        29.92F
BLOCK ISLAND   SUNNY     63  46  55 W12       29.96F
WESTERLY       SUNNY     62  47  57 SW12      29.95F

 IN MA

CITY           SKY/WX    TMP DP  RH WIND       PRES   REMARKS
BOSTON         SUNNY     53  39  59 E16       29.95F
WORCESTER      SUNNY     64  39  39 W16G22    29.92F
WESTFIELD      MOSUNNY   71  39  31 NW10      29.91F
PROVINCETOWN   SUNNY     50  41  71 N8        29.96S
NANTUCKET      SUNNY     60  47  61 SW9       29.94S
$$

ANZ330-335-338-340-345-350-353-355-181700-
COASTAL MARINE OBSERVATIONS


STATION/POSITION TIME  SKY/WX   TEMP    WIND        PRES    VSBY  WAVE
                                AIR SEA DIR/SP/G                  HT/PER
                 (UTC)          (F)     (DEG/KT/KT) (MB)    (MI)  (FT/S)
NY HARB ENTRANCE 1550            59 49  220/  4/  4 1015.1          2/ 7
4S FIRE IS       1503               46                N/A           3/ 8
20S FIRE ISLAND  1450               45              1016.5          3/ 6
23SW MTP         NOT AVBL
HUDSON CANYON    NOT AVBL
EXECUTION ROCKS  NOT AVBL
WESTERN LI SOUND NOT AVBL
CENTRAL LI SOUND NOT AVBL
EASTERN LI SOUND 1500            47     260/ 10/ 12   N/A
ROBBINS REEF     1500            64     170/  4/  5 1014.4
$$


>>>>>>>>>>>>>>>>>>>>>>>>>>>> KEY <<<<<<<<<<<<<<<<<<<<<<<<<<<
>                                                          <
>     SKY/WX - SKY CONDITION/PRESENT WEATHER               <
>     TMP    - TEMPERATURE IN FAHRENHEIT                   <
>     DP     - DEWPOINT IN FAHRENHEIT                      <
>     RH     - RELATIVE HUMIDITY IN PERCENT                <
>     WIND   - DIRECTION AND SPEED IN MPH                  <
>     PRES   - MEAN SEA LEVEL PRESSURE IN INCHES OF HG     <
>     WCI    - WIND CHILL INDEX                            <
>     VSB    - VISIBILITY IN MILES                         <
>     HX     - HEAT INDEX                                  <
>     TC     - TEMPERATURE IN CELSIUS                      <
>     VRB    - VARIABLE WIND DIRECTION                     <
>                                                          <
>>>>>>>>>>>>>>>>>>>>>>>>>>>> KEY <<<<<<<<<<<<<<<<<<<<<<<<<<<




USA.gov is the U.S. government's official web portal to all federal, state and local government web resources and services.